TimeMDT,TemperatureF,Dew PointF,Humidity,Sea Level PressureIn,VisibilityMPH,Wind Direction,Wind SpeedMPH,Gust SpeedMPH,PrecipitationIn,Events,Conditions,WindDirDegrees,DateUTC
12:52 AM,27.0,18.0,69,30.18,10.0,South,6.9,-,N/A,,Clear,190,2011-10-18 06:52:00
1:52 AM,26.1,17.1,69,30.20,10.0,Calm,Calm,-,N/A,,Clear,0,2011-10-18 07:52:00
2:52 AM,25.0,16.0,69,30.20,10.0,Calm,Calm,-,N/A,,Clear,0,2011-10-18 08:52:00
3:52 AM,18.0,10.9,74,30.25,10.0,Calm,Calm,-,N/A,,Clear,0,2011-10-18 09:52:00
4:52 AM,19.0,12.9,77,30.25,10.0,South,5.8,-,N/A,,Clear,190,2011-10-18 10:52:00
5:52 AM,19.9,12.9,74,30.27,10.0,Calm,Calm,-,N/A,,Clear,0,2011-10-18 11:52:00
6:52 AM,19.0,12.9,77,30.30,10.0,SW,6.9,-,N/A,,Clear,220,2011-10-18 12:52:00
7:52 AM,21.0,14.0,74,30.34,10.0,SSW,5.8,-,N/A,,Clear,210,2011-10-18 13:52:00
8:52 AM,33.1,18.0,54,30.31,10.0,Calm,Calm,-,N/A,,Clear,0,2011-10-18 14:52:00
9:52 AM,46.0,19.9,35,30.27,10.0,NW,4.6,-,N/A,,Clear,320,2011-10-18 15:52:00
10:52 AM,51.1,16.0,25,30.23,10.0,North,13.8,20.7,N/A,,Clear,350,2011-10-18 16:52:00
11:52 AM,54.0,14.0,21,30.25,10.0,NNW,12.7,19.6,N/A,,Clear,340,2011-10-18 17:52:00
12:52 PM,55.0,10.0,17,30.25,10.0,North,9.2,18.4,N/A,,Clear,360,2011-10-18 18:52:00
1:52 PM,57.0,12.0,17,30.21,10.0,NNE,11.5,16.1,N/A,,Clear,20,2011-10-18 19:52:00
2:52 PM,59.0,12.0,16,30.19,10.0,NNE,9.2,16.1,N/A,,Clear,20,2011-10-18 20:52:00
3:52 PM,59.0,10.9,15,30.22,10.0,NNW,5.8,-,N/A,,Clear,340,2011-10-18 21:52:00
4:52 PM,59.0,10.0,14,30.20,10.0,NNE,8.1,-,N/A,,Clear,30,2011-10-18 22:52:00
5:52 PM,57.0,10.9,16,30.20,10.0,Calm,Calm,-,N/A,,Clear,0,2011-10-18 23:52:00
6:52 PM,46.4,10.4,23,30.27,10.0,Calm,Calm,-,N/A,,Clear,0,2011-10-19 00:52:00
7:52 PM,35.1,17.1,48,30.35,10.0,SE,6.9,-,N/A,,Clear,140,2011-10-19 01:52:00
8:52 PM,30.9,18.0,59,30.32,10.0,Calm,Calm,-,N/A,,Clear,0,2011-10-19 02:52:00
9:52 PM,28.9,17.1,61,30.28,10.0,ENE,4.6,-,N/A,,Clear,60,2011-10-19 03:52:00
10:52 PM,30.0,17.1,59,30.25,10.0,SE,5.8,-,N/A,,Clear,140,2011-10-19 04:52:00
11:52 PM,24.1,16.0,71,30.26,10.0,Calm,Calm,-,N/A,,Clear,0,2011-10-19 05:52:00